This is the latest recevied weather packets stored in our database for station/object HG6IQI-10. If no packets are shown the sender has not sent any weather packets the latest 10 day(s).
| Time | Temp. | Humidity | Pressure | Rain* | Wind** | Luminosity | Snow |
|---|---|---|---|---|---|---|---|
| 1777114078 | 17.78° C | 38% | 1014 hPa | - | - | - | - |
| 1777113178 | 17.78° C | 38% | 1014.1 hPa | - | - | - | - |
| 1777111380 | 17.22° C | 40% | 1014.4 hPa | - | - | - | - |
| 1777110479 | 17.22° C | 39% | 1014.3 hPa | - | - | - | - |
| 1777109579 | 16.67° C | 39% | 1014.5 hPa | - | - | - | - |
| 1777108679 | 16.11° C | 41% | 1014.6 hPa | - | - | - | - |
| 1777107779 | 15.56° C | 42% | 1014.9 hPa | - | - | - | - |
| 1777106879 | 15.56° C | 41% | 1014.8 hPa | - | - | - | - |
| 1777105979 | 15.56° C | 44% | 1014.9 hPa | - | - | - | - |
| 1777105079 | 15° C | 45% | 1015 hPa | - | - | - | - |
| 1777104179 | 14.44° C | 46% | 1015.1 hPa | - | - | - | - |
| 1777103279 | 13.89° C | 43% | 1015 hPa | - | - | - | - |
| 1777102379 | 13.89° C | 48% | 1015 hPa | - | - | - | - |
| 1777101478 | 12.78° C | 47% | 1015.1 hPa | - | - | - | - |
| 1777100578 | 12.22° C | 49% | 1015.2 hPa | - | - | - | - |
| 1777099678 | 12.22° C | 51% | 1015.2 hPa | - | - | - | - |
| 1777098778 | 11.67° C | 53% | 1015.2 hPa | - | - | - | - |
| 1777097878 | 10.56° C | 58% | 1015.3 hPa | - | - | - | - |
| 1777096978 | 10° C | 67% | 1015.2 hPa | - | - | - | - |
| 1777096078 | 8.89° C | 74% | 1015.2 hPa | - | - | - | - |
| 1777095178 | 7.78° C | 72% | 1015.1 hPa | - | - | - | - |
| 1777094278 | 8.33° C | 76% | 1015 hPa | - | - | - | - |
| 1777093378 | 6.11° C | 86% | 1015.1 hPa | - | - | - | - |
| 1777092478 | 3.33° C | 90% | 1014.9 hPa | - | - | - | - |
| 1777091578 | 2.22° C | 91% | 1014.9 hPa | - | - | - | - |
* Rain since midnight (hover to see other rain measurements)
** Current wind speed in m/s (hover to see current wind gust speed)